Regional Weather Roundup
Issued by NWS Charleston, SC

Current Version | Previous Version | Graphics & Text | Print | Product List | Glossary On
Versions: 1 2 3 4 5 6 7 8 9 10 11 12 13 14 15 16 17 18 19 20 21 22 23 24 25 26 27 28 29 30 31 32 33 34 35 36 37 38 39 40 41 42 43 44 45 46 47 48 49 50
000 ASUS42 KCHS 190912 RWRCHS Regional Weather Roundup National Weather Service Charleston SC 500 AM EDT THU APR 19 2018 NOTE: "fair" indicates few or no clouds below 12,000 feet with no significant weather and/or obstructions to visibility. Not all stations are quality controlled. Use data with caution, especially dewpoint observations. SCZ027-030-031-034>040-042>050-191000- ...Southeast South Carolina... CITY SKY/WX TMP DP RH WIND PRES REMARKS N Charleston FAIR 66 50 56 SW10 29.90S Waterfront Prk N/A 67 51 56 SW7G14 29.75S Mount Pleasant FAIR 66 52 59 SW8 29.90S Johns Island FAIR 66 52 59 SW9 29.92R Pinopolis N/A 66 54 63 SW10 29.78F Moncks Corner FAIR 64 46 52 SW9 29.88S Summerville FAIR 61 48 63 SW5 29.90S Beaufort MCAS FAIR 64 55 72 SW10 29.94R Beaufort Arpt FAIR 64 55 72 SW12G21 29.94R Hilton Head Is FAIR 64 55 72 SW9G17 29.96S Walterboro FAIR 63 52 67 SW9 29.92R Allendale FAIR 66 57 72 CALM 29.90S ...Southern Midlands and Pee Dee... CITY SKY/WX TMP DP RH WIND PRES REMARKS Georgetown FAIR 64 48 55 SW12 29.88S Kingstree FAIR 63 50 63 S5 29.84S Orangeburg FAIR 66 53 63 SW14 29.87S Barnwell FAIR 64 54 68 SW8 29.89S Aiken FAIR 63 54 72 SW10 29.90S Manning FAIR 63 50 63 SW8 29.86S Columbia FAIR 68 54 60 SW10 29.83S Sumter FAIR 67 51 56 SW16 29.81S Florence FAIR 68 51 54 SW12 29.80F Myrtle Beach FAIR 68 49 50 SW10 29.85F N Myrtle Beach FAIR 64 54 69 SW12 29.83F $$ GAZ063-065-086>088-099>101-113>116-118-119-134>141-150-191000- ...Southeast Georgia... CITY SKY/WX TMP DP RH WIND PRES REMARKS Savannah Arpt FAIR 65 58 78 W14 29.96R Hunter AAF FAIR 65 57 76 W14 29.94R Fort Stewart FAIR 63 58 84 SW12 29.96S Statesboro FAIR 66 56 71 W7 29.95S Sylvania FAIR 66 61 82 W7 29.94S Claxton FAIR 66 62 85 S5 29.97S ...CSRA, Central and far Southeast Georgia... CITY SKY/WX TMP DP RH WIND PRES REMARKS Thomson FAIR 65 57 74 W7 29.93S Augusta-Bush FAIR 66 57 72 SW12 29.88S Augusta-Daniel FAIR 67 56 67 SW7 29.88F Swainsboro FAIR 64 59 82 SW7 29.95F Vidalia FAIR 64 61 88 SW8 29.97S Eastman FAIR 66 55 66 SW7 30.00R Hazlehurst FAIR 66 59 79 SW7 29.98S Alma FAIR 65 60 84 SW9 30.00R Waycross FAIR 62 59 91 W7 30.02S Jesup FAIR 63 59 88 CALM 30.00S Baxley FAIR 63 63 100 SW5 29.99S Brunswick FAIR 63 59 88 W13 30.01S Saint Simons FAIR 63 60 90 W9 30.00S $$ SCZ027-028-034-036>038-045-046-048>050-GAZ119-141-191000- ...Lake and Supplemental Coastal Observations... STATION/POSITION TIME TEMP WIND PRES WAVE SWELL AIR SEA DIR/SP/G HT/PER HT/PER/DIR (UTC) (F) (DEG/KT/KT) (MB) (FT/S) (FT/S/D) Winyah Bay 0745 67 240/ 8 1011.0 Lake Murray 0820 70 240/ 12/ 17 1009.5 ACE Basin NERRS 0745 66 350/ 5 N/A Fort Pulaski 0842 64 65 260/ 7/ 11 1014.9R Sapelo Island 0800 64 250/ 12 1015.0 $$ ANZ835-935-AMZ111-154-330-350-352-354-370-450-454-472-191000- ...C-MAN and Buoy Observations... STATION/POSITION TIME TEMP WIND PRES WAVE SWELL AIR SEA DIR/SP/G HT/PER HT/PER/DIR (UTC) (F) (DEG/KT/KT) (MB) (FT/S) (FT/S/D) Buoy 41004 0850 69 67 240/ 21/ 25 1013.1S 7/ 7 Buoy 41008 0850 65 64 240/ 17/ 21 1015.4R 3/ 5 2/ 50/ 8 Folly Beach CMAN 0800 65 230/ 13/ 14 1013.5R Capers Nearshore 0808 66 63 240/ 17/ 21 1012.8R Fripp Nearshore 0808 65 64 240/ 16/ 21 1013.3F STATION/POSITION TIME TEMP WIND PRES WAVE SWELL AIR SEA DIR/SP/G HT/PER HT/PER/DIR (UTC) (F) (DEG/KT/KT) (MB) (FT/S) (FT/S/D) 5E St. Marys GA 0900 65 N/A 2/ 9 Frying Pan Buoy 0850 69 66 230/ 23/ 29 1011.3S 8/ 7 Buoy 41025 0900 71 68 230/ 25/ 29 1008.4 Cape Lookout NC 0800 230/ 19/ 26 1008.8S Buoy 41002 0850 71 72 220/ 23/ 29 1015.2R 7/ 6 2/140/11 Buoy 41010 0850 73 73 190/ 16/ 19 1018.1R 3/ 9 2/110/ 9 St Augustine FL 0900 62 66 250/ 5/ 7 1017.5R $$

USA.gov is the U.S. government's official web portal to all federal, state and local government web resources and services.